ROSLDG Weather Reports


Display with metric or nautical units.
time (UTC)temp
F
wind
direction
speed
MPH
gust
MPH
rain 1hr
in
rain 24hr
in
rain mn
in
humidity
%
barometer
mb
20210805205700 67 357 0.0 2.0 0.00 0.00 0.00 85
20210805203700 67 357 0.0 3.0 0.00 0.00 0.00 83
20210805201201 69 70 0.0 3.0 0.00 0.00 0.00 79
20210805200200 69 0 0.0 0.0 0.00 0.00 0.00 79
20210805194659 68 0 0.0 0.0 0.00 0.00 0.00 81
20210805192158 68 0 0.0 0.0 0.00 0.00 0.00 84
20210805191159 67 70 0.0 2.0 0.00 0.00 0.00 86
20210805173659 65 0 0.0 0.0 0.00 0.00 0.00 88
20210805172159 64 0 0.0 0.0 0.00 0.00 0.00 92
20210805170159 64 0 0.0 0.0 0.00 0.00 0.00 94
20210805162200 61 0 0.0 0.0 0.00 0.00 0.00 100
20210805155201 59 0 0.0 0.0 0.00 0.00 0.00 100
20210805153700 58 0 0.0 0.0 0.00 0.00 0.00 100
20210805151200 55 0 0.0 0.0 0.00 0.00 0.00 100
20210805143659 53 0 0.0 0.0 0.00 0.00 0.00 100
20210805143159 53 0 0.0 0.0 0.00 0.00 0.00 100
20210805114702 50 0 0.0 0.0 0.00 0.00 0.00 100
20210805114158 50 0 0.0 0.0 0.00 0.00 0.00 100
20210805110701 51 0 0.0 0.0 0.00 0.00 0.00 100
20210805104658 51 0 0.0 0.0 0.00 0.00 0.00 100
20210805093659 51 0 0.0 0.0 0.00 0.00 0.00 100
20210805061158 55 0 0.0 0.0 0.00 0.00 0.00 98
20210805053158 56 0 0.0 0.0 0.00 0.00 0.00 97
20210805052658 56 0 0.0 0.0 0.00 0.00 0.00 96
20210805052159 56 0 0.0 0.0 0.00 0.00 0.00 96
20210805045200 57 0 0.0 0.0 0.00 0.00 0.00 95
20210805035157 60 0 0.0 0.0 0.00 0.00 0.00 92
20210805033659 60 0 0.0 0.0 0.00 0.00 0.00 91
20210805032159 61 0 0.0 0.0 0.00 0.00 0.00 90
20210805031159 61 0 0.0 0.0 0.00 0.00 0.00 89
20210805023658 63 0 0.0 0.0 0.00 0.00 0.00 83
20210805020159 67 0 0.0 0.0 0.00 0.00 0.00 75
20210805012659 70 357 0.0 2.0 0.00 0.00 0.00 69
20210805010156 72 21 0.0 3.0 0.00 0.00 0.00 66
20210805005158 73 0 0.0 0.0 0.00 0.00 0.00 64
20210805004658 73 96 0.0 3.0 0.00 0.00 0.00 63
20210805000658 79 0 0.0 0.0 0.00 0.00 0.00 55
20210804231657 79 0 0.0 0.0 0.00 0.00 0.00 54